Regional Weather Roundup
Issued by NWS Green Bay, WI

Home | Current Version | Previous Version | Text Only | Print | Product List | Glossary On
Versions: 1 2 3 4 5 6 7 8 9 10 11 12 13 14 15 16 17 18 19 20 21 22 23 24 25 26 27 28 29 30 31 32 33 34 35 36 37 38 39 40 41 42 43 44 45 46 47 48 49 50
000
ASUS43 KGRB 210611
RWRGRB

NORTH-CENTRAL AND NORTHEAST WISCONSIN REGIONAL WEATHER ROUNDUP
NATIONAL WEATHER SERVICE GREEN BAY WI
100 AM CDT FRI JUL 21 2017

WIZ005-009-010>012-018-019-210700-
NORTH CENTRAL WISCONSIN

CITY           SKY/WX    TMP DP  RH WIND       PRES   REMARKS
IRONWOOD       CLEAR     61  60  97 CALM      29.99S
MANITOWISH WTR FOG       58  58 100 CALM      30.01S VSB 1
ARBOR VITAE    CLEAR     62  60  94 CALM      30.00F
EAGLE RIVER    FOG       58  58 100 CALM      30.01F VSB 1/2
LAND O LAKES   CLEAR     57  57 100 CALM      30.02F FOG
RHINELANDER    CLEAR     60  60 100 CALM      30.02S FOG
PHILLIPS       PTCLDY    61  61 100 CALM      30.01R
ANTIGO         CLEAR     61  59  94 CALM      30.02R
TOMAHAWK         N/A     57  56  95 CALM      30.02S FOG
MERRILL        CLEAR     61  61 100 CALM      30.01S
$$

WIZ013-073-210700-
NORTHEAST WISCONSIN

CITY           SKY/WX    TMP DP  RH WIND       PRES   REMARKS
IRON MOUNTAIN  CLEAR     60  56  86 CALM      29.98R
MARINETTE      CLEAR     68  64  87 N3        29.97R
OCONTO         CLEAR     63  63  98 CALM      29.97R
$$

WIZ017-030-035>037-045-210700-
CENTRAL WISCONSIN

CITY           SKY/WX    TMP DP  RH WIND       PRES   REMARKS
MEDFORD        CLEAR     64  63  97 CALM      30.00F
WAUSAU         CLEAR     69  65  86 NW3       29.97F
MOSINEE        CLEAR     64  64 100 N3        30.00S
MARSHFIELD     CLEAR     67  62  84 N5        29.98F
WISC RAPIDS    CLEAR     64  63  96 SW5       30.00R FOG
STEVENS POINT  CLEAR     61  61 100 CALM      29.99F
WAUPACA        CLEAR     68  66  96 CALM      29.97F
SHAWANO        CLEAR     68  65  89 CALM      29.97S
CLINTONVILLE   CLEAR     64  63  94 CALM      29.98R
WAUTOMA        CLEAR     66  65  96 CALM      30.00R
$$

WIZ038-039-048-051-210700-
FOX VALLEY

CITY           SKY/WX    TMP DP  RH WIND       PRES   REMARKS
NWS GREEN BAY  CLEAR     68  68 100 NW6       29.96R
APPLETON       CLEAR     68  61  77 W8        29.96S
OSHKOSH        CLEAR     69  65  86 CALM      29.96S
FOND DU LAC    CLEAR     70  66  87 CALM      29.98R
$$

WIZ022-050-052-210700-
EAST CENTRAL WISCONSIN

CITY           SKY/WX    TMP DP  RH WIND       PRES   REMARKS
EPHRAIM        FAIR      70  60  70 NE7       29.95R
WASHINGTON ISL FAIR      65  64  96 CALM      29.95S
STURGEON BAY     N/A     70  66  87 NE5       29.97R
MANITOWOC      CLEAR     68  66  93 CALM      29.95F
SHEBOYGAN      CLEAR     67  67 100 SW3       29.97R FOG
$$

LMZ563-521-522-541>543-210700-
LAKESHORE

STATION/POSITION TIME  TEMP    WIND        PRES    VSBY  WAVE
                       AIR SEA DIR/SP/G                  HT/PER
                 (UTC) (F)     (DEG/KT/KT) (MB)    (MI)  (FT/S)
SHEBOYGAN LKSHOR 0600   71     230/  3/  4 1014.0R
KEWAUNEE LKSHORE 0548          300/  5/  6 1013.3S
NORTHPORT PIER   0540   70      CALM  /  2 1014.2R
N MID LAKE BUOY  0550   66 65  110/  4/  8 1014.8R         1/ 5
S GREEN BAY BUOY 0600   73 73   10/ 10/ 10 1014.3R
SISTER BAY LKSHO 0602   71     100/  3/  5   N/A
CHAMBERS ISLAND  0540   72      10/  6/  8 1013.5S
MENOMINEE LKSHOR 0548          340/  6/  7 1014.2R
$$



USA.gov is the U.S. government's official web portal to all federal, state and local government web resources and services.